Find Starlink 5156

NORAD ID: 53973 Int'l Des: 2022-125 Owner: SPXS Country: US Constellation: starlink operational
LEOCIRCULAR

リアルタイム位置

3D地球を読み込み中...

Starlink 5156について

説明を読み込み中...

次回通過

Passes for default location (London). Set your location on the main map for personalized predictions.

高度履歴

Loading altitude history...

軌道要素

1 53973U 22125K 26122.87283030 .00000014 00000-0 18974-4 0 9991
2 53973 53.2180 340.7621 0001407 88.3158 271.7995 15.08838616197504
Epoch: May 2, 2026 • Age: 6 hours

現在のステータス

高度 549.3 km
速度 7.59 km/s
衛星直下点 -29.62°S, 46.47°E
打ち上げ日 Oct 5, 2022
運用期間 3.5 years
タイプ internet

技術仕様

分類 Payload
質量 305.00 kg
乾燥質量 290.00 kg
総質量 305.00 kg
長さ 0.20 m
直径 2.80 m
スパン 9.00 m
形状 Box + pan
製造者 SPXS
バスタイプ Starlink
フェーズステータス In Orbit
所有者/国 SPXS/US

Most Searched